Thief River Falls, MN

10:38 PM CDT on May 21, 2018 (GMT -0500)
Thief River Falls Regional

Weather History for KTVF - January, 2013

Change the Weather History Date:

Saturday, January 5, 2013

  Actual Average Record
Temperature  
Mean Temperature 11 °F -  
Max Temperature 19 °F 12 °F 44 °F (2012)
Min Temperature 3 °F 0 °F -34 °F (1973)
Degree Days  
Heating Degree Days 54    
Moisture  
Dew Point 5 °F    
Average Humidity 84    
Maximum Humidity 100    
Minimum Humidity 53    
Precipitation  
Precipitation 0.00 in - - ()
Sea Level Pressure  
Sea Level Pressure 30.00 in    
Wind  
Wind Speed 7 mph (North)    
Max Wind Speed 14 mph    
Max Gust Speed -    
Visibility 10 miles    
Events      
Averages and records for this station are not official NWS values.
T = Trace of Precipitation, MM = Missing Value Source: NWS Daily Summary

Daily Weather History Graph

Daily Weather History Graph

Search for Another Location

Airport or City:

Astronomy

Jan. 05, 2013 Rise Set
Actual Time 8:14 AM CST 4:46 PM CST
Civil Twilight 7:38 AM CST 5:22 PM CST
Nautical Twilight 6:59 AM CST 6:01 PM CST
Astronomical Twilight 6:21 AM CST 6:39 PM CST
Moon 1:05 AM CST (1/5) 11:50 AM CST (1/5)
Length of Visible Light 9h 44m
Length of Day
8h 32m
Last Quarter, 44% of the Moon is Illuminated
Jan 5
Last Quarter
Jan 11
New
Jan 18
First Quarter
Jan 26
Full
Feb 3
Last Quarter

Hourly Weather History & Observations

Time (CST) Temp. Windchill Dew Point Humidity Pressure Visibility Wind Dir Wind Speed Gust Speed Precip Events Conditions
12:15 AM 6.8 °F -3.5 °F 3.2 °F 85% 30.03 in 10.0 mi East 5.8 mph - N/A   Clear
12:35 AM 6.8 °F -0.1 °F 3.2 °F 85% 30.03 in 10.0 mi ENE 3.5 mph - N/A   Clear
12:55 AM 8.6 °F 0.1 °F 6.8 °F 92% 30.03 in 10.0 mi East 4.6 mph - N/A   Clear
1:15 AM 6.8 °F -2.0 °F 5.0 °F 92% 30.02 in 10.0 mi East 4.6 mph - N/A   Clear
1:35 AM 6.8 °F -4.8 °F 5.0 °F 92% 30.01 in 10.0 mi East 6.9 mph - N/A   Clear
1:55 AM 5.0 °F -9.1 °F 3.2 °F 92% 30.00 in 10.0 mi ESE 9.2 mph - N/A   Clear
2:15 AM 8.6 °F -1.3 °F 6.8 °F 92% 30.00 in 10.0 mi East 5.8 mph - N/A   Clear
2:35 AM 10.4 °F 0.8 °F 8.6 °F 92% 30.00 in 10.0 mi ENE 5.8 mph - N/A   Clear
2:55 AM 8.6 °F 2.0 °F 6.8 °F 92% 30.00 in 10.0 mi ENE 3.5 mph - N/A   Clear
3:15 AM 10.4 °F -0.4 °F 8.6 °F 92% 29.99 in 10.0 mi ENE 6.9 mph - N/A   Clear
3:35 AM 8.6 °F -3.7 °F 5.0 °F 85% 29.99 in 10.0 mi ENE 8.1 mph - N/A   Clear
3:55 AM 8.6 °F -1.3 °F 5.0 °F 85% 29.98 in 10.0 mi East 5.8 mph - N/A   Clear
4:15 AM 10.4 °F -1.5 °F 8.6 °F 92% 29.97 in 10.0 mi East 8.1 mph - N/A   Clear
4:35 AM 8.6 °F -3.7 °F 3.2 °F 79% 29.96 in 10.0 mi ENE 8.1 mph - N/A   Clear
4:55 AM 8.6 °F 2.0 °F 3.2 °F 79% 29.96 in 10.0 mi East 3.5 mph - N/A   Clear
5:15 AM 6.8 °F -4.8 °F 3.2 °F 85% 29.95 in 10.0 mi East 6.9 mph - N/A   Clear
5:35 AM 6.8 °F -4.8 °F 1.4 °F 79% 29.94 in 10.0 mi East 6.9 mph - N/A   Clear
6:15 AM 8.6 °F -3.7 °F 6.8 °F 92% 29.94 in 10.0 mi East 8.1 mph - N/A   Clear
6:35 AM 6.8 °F -2.0 °F 3.2 °F 85% 29.94 in 10.0 mi East 4.6 mph - N/A   Clear
6:55 AM 5.0 °F -4.1 °F 1.4 °F 85% 29.93 in 10.0 mi East 4.6 mph - N/A   Clear
7:15 AM 5.0 °F - 3.2 °F 92% 29.94 in 10.0 mi Calm Calm - N/A   Scattered Clouds
7:35 AM 3.2 °F -9.1 °F -2.2 °F 78% 29.95 in 10.0 mi NW 6.9 mph - N/A   Scattered Clouds
7:55 AM 3.2 °F -7.8 °F 1.4 °F 92% 29.95 in 10.0 mi North 5.8 mph - N/A   Mostly Cloudy
8:15 AM 5.0 °F -8.1 °F 3.2 °F 92% 29.95 in 10.0 mi North 8.1 mph - N/A   Overcast
8:35 AM 5.0 °F -4.1 °F 3.2 °F 92% 29.96 in 10.0 mi NNE 4.6 mph - N/A   Scattered Clouds
8:55 AM 5.0 °F -4.1 °F -2.2 °F 72% 29.96 in 10.0 mi NNE 4.6 mph - N/A   Clear
9:15 AM 6.8 °F -3.5 °F 3.2 °F 85% 29.96 in 10.0 mi NNE 5.8 mph - N/A   Clear
9:55 AM 8.6 °F -1.3 °F 6.8 °F 92% 29.97 in 10.0 mi NNE 5.8 mph - N/A   Clear
10:15 AM 10.4 °F 0.8 °F 6.8 °F 85% 29.98 in 10.0 mi NNE 5.8 mph - N/A   Clear
10:55 AM - - - N/A% 29.97 in 10.0 mi NNE 8.1 mph - N/A   Scattered Clouds
11:15 AM - - - N/A% 29.96 in 10.0 mi NNE 6.9 mph - N/A   Overcast
11:55 AM - - - N/A% 29.98 in 10.0 mi NNW 6.9 mph - N/A   Overcast
12:15 PM - - - N/A% 29.96 in 10.0 mi North 4.6 mph - N/A   Scattered Clouds
12:35 PM 17.6 °F 12.3 °F 15.8 °F 93% 29.96 in 10.0 mi North 3.5 mph - N/A   Partly Cloudy
12:55 PM 17.6 °F 3.7 °F 17.6 °F 100% 29.96 in 10.0 mi NNW 13.8 mph - N/A   Mostly Cloudy
1:15 PM 17.6 °F 4.3 °F 14.0 °F 86% 29.97 in 10.0 mi NNW 12.7 mph - N/A   Overcast
1:35 PM 17.6 °F 5.0 °F 15.8 °F 93% 29.96 in 10.0 mi North 11.5 mph - N/A   Overcast
1:55 PM 19.4 °F 6.0 °F 15.8 °F 86% 29.95 in 10.0 mi North 13.8 mph - N/A   Overcast
2:15 PM 19.4 °F 7.2 °F 12.2 °F 74% 29.96 in 10.0 mi North 11.5 mph - N/A   Overcast
2:35 PM 19.4 °F 6.6 °F 10.4 °F 68% 29.97 in 10.0 mi North 12.7 mph - N/A   Overcast
2:55 PM 19.4 °F 6.6 °F 10.4 °F 68% 29.97 in 10.0 mi NNW 12.7 mph - N/A   Overcast
3:15 PM 17.6 °F 4.3 °F 8.6 °F 68% 29.99 in 10.0 mi NNW 12.7 mph - N/A   Scattered Clouds
3:35 PM 17.6 °F 3.7 °F 6.8 °F 63% 29.99 in 10.0 mi NNW 13.8 mph - N/A   Partly Cloudy
3:55 PM 17.6 °F 5.0 °F 3.2 °F 53% 30.01 in 10.0 mi NNW 11.5 mph - N/A   Mostly Cloudy
4:15 PM - - - N/A% 30.01 in 10.0 mi WNW 9.2 mph - N/A   Mostly Cloudy
4:55 PM - - - N/A% 30.02 in 10.0 mi WNW 10.4 mph - N/A   Clear
5:15 PM 10.4 °F -2.4 °F 5.0 °F 79% 30.03 in 10.0 mi WNW 9.2 mph - N/A   Clear
5:35 PM 8.6 °F -4.7 °F 3.2 °F 79% 30.03 in 10.0 mi WNW 9.2 mph - N/A   Clear
5:55 PM 6.8 °F -6.9 °F 3.2 °F 85% 30.03 in 10.0 mi WNW 9.2 mph - N/A   Clear
6:15 PM 6.8 °F -7.8 °F 1.4 °F 79% 30.05 in 10.0 mi WNW 10.4 mph - N/A   Clear
6:35 PM 6.8 °F -10.0 °F 1.4 °F 79% 30.06 in 10.0 mi WNW 13.8 mph - N/A   Clear
6:55 PM 5.0 °F -10.8 °F -0.4 °F 78% 30.07 in 10.0 mi NW 11.5 mph - N/A   Clear
7:15 PM 3.2 °F -13.1 °F -0.4 °F 85% 30.08 in 10.0 mi WNW 11.5 mph - N/A   Clear
7:35 PM 3.2 °F -12.2 °F -2.2 °F 78% 30.07 in 10.0 mi WNW 10.4 mph - N/A   Clear
7:55 PM 3.2 °F -12.2 °F -0.4 °F 85% 30.07 in 10.0 mi NW 10.4 mph - N/A   Clear
8:15 PM 3.2 °F -7.8 °F -2.2 °F 78% 30.06 in 10.0 mi WNW 5.8 mph - N/A   Clear
8:55 PM 3.2 °F -10.3 °F -0.4 °F 85% 30.07 in 10.0 mi WNW 8.1 mph - N/A   Scattered Clouds
9:15 PM 3.2 °F -10.3 °F -0.4 °F 85% 30.07 in 10.0 mi NW 8.1 mph - N/A   Overcast
9:35 PM 3.2 °F -7.8 °F -0.4 °F 85% 30.07 in 10.0 mi NW 5.8 mph - N/A   Overcast
9:55 PM 6.8 °F -3.5 °F 1.4 °F 79% 30.08 in 10.0 mi WNW 5.8 mph - N/A   Overcast
10:15 PM 6.8 °F -0.1 °F 3.2 °F 85% 30.07 in 10.0 mi WNW 3.5 mph - N/A   Overcast
10:35 PM 8.6 °F 0.1 °F 3.2 °F 79% 30.07 in 10.0 mi West 4.6 mph - N/A   Overcast
10:55 PM 8.6 °F - 6.8 °F 92% 30.07 in 10.0 mi Calm Calm - N/A   Overcast
11:15 PM 8.6 °F - 3.2 °F 79% 30.07 in 10.0 mi Calm Calm - N/A   Overcast
11:35 PM 10.4 °F 4.0 °F 6.8 °F 85% 30.08 in 4.0 mi West 3.5 mph - N/A   Overcast
11:55 PM - - - N/A% 30.07 in 9.0 mi Calm Calm - N/A   Overcast